Location: Newark
(43.0000°N, 1.6781°W)
Time: 01:25:54
(UTC+00:00)

Vanguard 1 Rocket - Pass Details

Date: 27 April 2021
Orbit: 652 x 4224 km, 34.3° (Epoch: 06 May)

Event Time Altitude Azimuth Distance (km) Brightness Sun altitude
Rises 13:55:06 0° 260° (W) 4,335 11.3 52.5°
Reaches altitude 10° 13:58:50 10° 252° (WSW) 2,905 10.7 52.0°
Maximum altitude 14:04:27 33° 190° (S) 1,305 9.3 51.2°
Drops below altitude 10° 14:08:34 10° 125° (SE) 2,097 9.3 50.6°
Sets 14:10:50 0° 115° (ESE) 2,959 9.9 50.3°
